Location: Dumpton Point
(51.3500°N, 1.4433°E)
Time: 22:42:26
(UTC+00:00)

Tiros 1 despin weight - Pass Details

Date: 27 April 2021
Orbit: 593 x 642 km, 48.2° (Epoch: 06 May)

Event Time Altitude Azimuth Distance (km) Brightness Sun altitude
Exits shadow 02:20:09 20° 168° (SSE) 1,461 ? -17.3°
Maximum altitude 02:21:17 22° 147° (SSE) 1,382 ? -17.1°
Drops below altitude 10° 02:24:50 10° 97° (E) 2,003 ? -16.8°
Sets 02:27:32 0° 82° (E) 2,904 ? -16.5°
